| time (UTC) | temp C | wind direction | speed KPH | gust KPH | rain 1hr cm | rain 24hr cm | rain mn cm | humidity % | barometer mb |
| 20260506202704 | 22 | 160 | 0.0 | 4.8 | 0.00 | 0.03 | 0.00 | 63 | 1022.3 |
| 20260506202205 | 22 | 129 | 0.0 | 4.8 | 0.00 | 0.03 | 0.00 | 64 | 1022.4 |
| 20260506201704 | 22 | 155 | 0.0 | 3.2 | 0.00 | 0.03 | 0.00 | 65 | 1022.5 |
| 20260506200704 | 22 | 147 | 0.0 | 3.2 | 0.00 | 0.03 | 0.00 | 64 | 1022.6 |
| 20260506200204 | 21 | 144 | 0.0 | 4.8 | 0.00 | 0.03 | 0.00 | 65 | 1022.7 |
| 20260506195704 | 21 | 125 | 1.6 | 4.8 | 0.00 | 0.03 | 0.00 | 65 | 1022.7 |
| 20260506195204 | 21 | 137 | 1.6 | 4.8 | 0.00 | 0.03 | 0.00 | 65 | 1022.7 |
| 20260506194704 | 21 | 132 | 1.6 | 8.0 | 0.00 | 0.03 | 0.00 | 66 | 1022.8 |
| 20260506194204 | 21 | 144 | 0.0 | 9.7 | 0.00 | 0.03 | 0.00 | 67 | 1022.8 |
| 20260506193704 | 21 | 149 | 0.0 | 9.7 | 0.00 | 0.03 | 0.00 | 66 | 1022.8 |
| 20260506193204 | 21 | 136 | 0.0 | 3.2 | 0.00 | 0.03 | 0.00 | 66 | 1022.9 |
| 20260506192703 | 21 | 151 | 0.0 | 3.2 | 0.00 | 0.03 | 0.00 | 67 | 1022.9 |
| 20260506192204 | 20 | 129 | 0.0 | 3.2 | 0.00 | 0.03 | 0.00 | 68 | 1023.0 |
| 20260506191204 | 20 | 159 | 0.0 | 4.8 | 0.00 | 0.03 | 0.00 | 68 | 1023.0 |
| 20260506190703 | 20 | 133 | 1.6 | 4.8 | 0.00 | 0.03 | 0.00 | 68 | 1023.1 |
| 20260506190203 | 20 | 129 | 0.0 | 3.2 | 0.00 | 0.03 | 0.00 | 69 | 1023.1 |
| 20260506184704 | 20 | 130 | 0.0 | 1.6 | 0.00 | 0.03 | 0.00 | 70 | 1023.1 |
| 20260506184204 | 20 | 143 | 0.0 | 3.2 | 0.00 | 0.03 | 0.00 | 69 | 1023.1 |
| 20260506183704 | 19 | 139 | 0.0 | 3.2 | 0.00 | 0.03 | 0.00 | 70 | 1023.2 |
| 20260506183204 | 19 | 133 | 1.6 | 3.2 | 0.00 | 0.03 | 0.00 | 70 | 1023.2 |
| 20260506182703 | 18 | 125 | 0.0 | 3.2 | 0.00 | 0.03 | 0.00 | 71 | 1023.2 |
| 20260506182204 | 18 | 135 | 0.0 | 1.6 | 0.00 | 0.03 | 0.00 | 72 | 1023.3 |
| 20260506181704 | 18 | 138 | 0.0 | 1.6 | 0.00 | 0.03 | 0.00 | 73 | 1023.3 |
| 20260506181203 | 18 | 148 | 0.0 | 1.6 | 0.00 | 0.03 | 0.00 | 73 | 1023.3 |
| 20260506180703 | 17 | 129 | 0.0 | 3.2 | 0.00 | 0.03 | 0.00 | 75 | 1023.3 |
| 20260506180204 | 17 | 129 | 0.0 | 3.2 | 0.00 | 0.03 | 0.00 | 75 | 1023.3 |
| 20260506175704 | 17 | 123 | 0.0 | 3.2 | 0.00 | 0.03 | 0.00 | 75 | 1023.3 |
| 20260506175204 | 17 | 124 | 0.0 | 0.0 | 0.00 | 0.03 | 0.00 | 74 | 1023.4 |
| 20260506174703 | 17 | 126 | 0.0 | 0.0 | 0.00 | 0.03 | 0.00 | 74 | 1023.4 |
| 20260506174203 | 17 | 126 | 0.0 | 1.6 | 0.00 | 0.03 | 0.00 | 74 | 1023.5 |
| 20260506173704 | 17 | 126 | 0.0 | 1.6 | 0.00 | 0.03 | 0.00 | 74 | 1023.5 |
| 20260506173204 | 17 | 129 | 0.0 | 1.6 | 0.00 | 0.03 | 0.00 | 75 | 1023.5 |
| 20260506172704 | 17 | 125 | 0.0 | 1.6 | 0.00 | 0.03 | 0.00 | 76 | 1023.5 |
| 20260506172203 | 16 | 126 | 0.0 | 1.6 | 0.00 | 0.03 | 0.00 | 76 | 1023.5 |
| 20260506171204 | 16 | 128 | 0.0 | 3.2 | 0.00 | 0.03 | 0.00 | 76 | 1023.6 |
| 20260506170703 | 16 | 129 | 0.0 | 3.2 | 0.00 | 0.03 | 0.00 | 76 | 1023.6 |
| 20260506170204 | 16 | 124 | 0.0 | 3.2 | 0.00 | 0.03 | 0.00 | 77 | 1023.7 |
| 20260506165203 | 16 | 126 | 0.0 | 0.0 | 0.00 | 0.03 | 0.00 | 78 | 1023.7 |
| 20260506164705 | 16 | 129 | 0.0 | 0.0 | 0.00 | 0.03 | 0.00 | 79 | 1023.7 |
| 20260506163204 | 15 | 141 | 0.0 | 0.0 | 0.00 | 0.03 | 0.00 | 81 | 1023.6 |
| 20260506162704 | 15 | 141 | 0.0 | 0.0 | 0.00 | 0.03 | 0.00 | 81 | 1023.6 |
| 20260506162204 | 15 | 127 | 0.0 | 0.0 | 0.00 | 0.03 | 0.00 | 82 | 1023.7 |
| 20260506161204 | 15 | 126 | 0.0 | 0.0 | 0.00 | 0.03 | 0.00 | 82 | 1023.6 |
| 20260506160704 | 15 | 126 | 0.0 | 0.0 | 0.00 | 0.03 | 0.00 | 84 | 1023.6 |
| 20260506160203 | 15 | 126 | 0.0 | 0.0 | 0.00 | 0.03 | 0.00 | 84 | 1023.6 |
| 20260506155704 | 14 | 131 | 0.0 | 0.0 | 0.00 | 0.03 | 0.00 | 85 | 1023.7 |
| 20260506155203 | 14 | 131 | 0.0 | 0.0 | 0.00 | 0.03 | 0.00 | 86 | 1023.5 |
| 20260506154704 | 14 | 131 | 0.0 | 0.0 | 0.00 | 0.03 | 0.00 | 88 | 1023.5 |
| 20260506153703 | 13 | 134 | 0.0 | 0.0 | 0.00 | 0.03 | 0.00 | 89 | 1023.5 |
| 20260506153203 | 13 | 134 | 0.0 | 0.0 | 0.00 | 0.03 | 0.00 | 90 | 1023.5 |
| 20260506152204 | 13 | 139 | 0.0 | 0.0 | 0.00 | 0.03 | 0.00 | 91 | 1023.5 |
| 20260506151704 | 13 | 139 | 0.0 | 0.0 | 0.00 | 0.03 | 0.00 | 92 | 1023.4 |
| 20260506150705 | 13 | 139 | 0.0 | 0.0 | 0.00 | 0.03 | 0.00 | 92 | 1023.5 |
| 20260506150206 | 13 | 139 | 0.0 | 0.0 | 0.00 | 0.03 | 0.00 | 92 | 1023.6 |
| 20260506145204 | 12 | 139 | 0.0 | 0.0 | 0.00 | 0.03 | 0.00 | 92 | 1023.4 |
| 20260506144704 | 12 | 126 | 0.0 | 0.0 | 0.00 | 0.03 | 0.00 | 92 | 1023.5 |
| 20260506144203 | 12 | 134 | 0.0 | 0.0 | 0.00 | 0.03 | 0.00 | 92 | 1023.4 |
| 20260506143204 | 12 | 131 | 0.0 | 0.0 | 0.00 | 0.03 | 0.00 | 93 | 1023.5 |
| 20260506142704 | 12 | 131 | 0.0 | 0.0 | 0.00 | 0.03 | 0.00 | 92 | 1023.4 |